Regional Weather Roundup
Issued by NWS

Home | Current Version | Previous Version | Graphics & Text | Print | Product List | Glossary On
Versions: 1 2 3 4 5 6 7 8 9 10 11 12 13 14 15 16 17 18 19 20 21 22 23 24 25 26 27 28 29 30 31 32 33 34 35 36 37 38 39 40 41 42 43 44 45 46 47 48 49 50
000
ASUS43 KMKX 281721
RWRWI

WISCONSIN REGIONAL WEATHER ROUNDUP
NATIONAL WEATHER SERVICE MILWAUKEE/SULLIVAN WI
1200 PM CDT WED SEP 28 2016

NOTE: "FAIR" INDICATES FEW OR NO CLOUDS BELOW 12,000 FEET WITH NO
SIGNIFICANT WEATHER AND/OR OBSTRUCTIONS TO VISIBILITY.

WIZ001-002-006>008-014>016-023>028-281800-
NORTHWEST WISCONSIN

CITY           SKY/WX    TMP DP  RH WIND       PRES   REMARKS
SUPERIOR ARPT  CLOUDY    59  50  72 NE9       30.21R
ASHLAND        CLOUDY    58  52  80 NE20G32   30.18R
HAYWARD        PTSUNNY   59  49  69 NE16G22   30.16R
SIREN          CLOUDY    57  49  74 N9G18     30.18R
CUMBERLAND     PTSUNNY   55  46  71 N15G21    30.14R
RICE LAKE      PTSUNNY   59  49  68 N14G23    30.15R
CHETEK         NOT AVBL
LADYSMITH      PTSUNNY   61  49  66 NE16G25   30.13R
EAU CLAIRE     PTSUNNY   60  48  64 NE15      30.09R
MENOMONIE      PTSUNNY   60  55  81 N14G22    30.10R
NEW RICHMOND   CLOUDY    59  48  67 NE10G18   30.15R
OSCEOLA        CLOUDY    59  50  72 N9G16     30.19R
$$

WIZ003>005-009-010-017-018-281800-
NORTH CENTRAL WISCONSIN

CITY           SKY/WX    TMP DP  RH WIND       PRES   REMARKS
MANITOWISH WTR NOT AVBL
ARBOR VITAE    PTSUNNY   59  51  72 NE9       30.11R
WOODRUFF       PTSUNNY   59  51  72 NE9       30.11R
RHINELANDER    CLOUDY    56  48  74 NE8G18    30.09R
EAGLE RIVER    PTSUNNY   58  47  65 NE9       30.10R
LAND O LAKES   PTSUNNY   57  48  72 NE7       30.12R
PHILLIPS       PTSUNNY   57  49  74 NE20G26   30.10R
TOMAHAWK       CLOUDY    56  48  74 N7        30.09R
MEDFORD        CLOUDY    56  50  82 N15G21    30.08R
MERRILL        CLOUDY    57  49  76 NE13G20   30.08R
$$

WIZ029-030-035-036-043>047-281800-
CENTRAL WISCONSIN

CITY           SKY/WX    TMP DP  RH WIND       PRES   REMARKS
WAUSAU         CLOUDY    58  47  66 NE9G20    30.05R
MOSINEE        CLOUDY    57  50  77 NE12G18   30.05R
MARSHFIELD     CLOUDY    59  48  67 NE14G22   30.04R
STEVENS POINT  CLOUDY    56  48  74 NE13      30.04R
WAUPACA        MOSUNNY   62  50  64 N12G18    30.02R
WAUTOMA        CLOUDY    59  50  72 NE15G23   30.02R
WISC RAPIDS    CLOUDY    61  50  67 NE10G20   30.04R
CAMP DOUGLAS   PTSUNNY   59  50  72 N10       30.03R
$$

WIZ011>013-019>022-031-037>040-048>050-281800-
NORTHEAST WISCONSIN

CITY           SKY/WX    TMP DP  RH WIND       PRES   REMARKS
ANTIGO         CLOUDY    55  49  82 NE12      30.06R
SHAWANO        CLOUDY    59  52  79 NE17      30.04R
OCONTO         NOT AVBL
STURGEON BAY   PTSUNNY   59  50  72 MISG      30.02R
GREEN BAY      HVY RAIN  56  54  93 NE14G26   30.00R FOG
MANITOWOC      CLOUDY    59  49  69 MISG      29.99R
APPLETON       PTSUNNY   57  54  88 NE15G24   29.99R
CLINTONVILLE   NOT AVBL
OSHKOSH        CLOUDY    59  51  75 N18       29.99R
$$

WIZ032>034-041-042-053>061-281800-
SOUTHWEST WISCONSIN

CITY           SKY/WX    TMP DP  RH WIND       PRES   REMARKS
LA CROSSE      LGT RAIN  61  53  75 N15G22    30.05R
SPARTA         CLOUDY    58  52  80 NE12      30.05R
VIROQUA        CLOUDY    55  50  83 N12       30.04R
BOSCOBEL       CLOUDY    59  49  69 N7        30.04R
PRAIRIE DU CHI CLOUDY    58  49  72 N9        30.03R
PLATTEVILLE    CLOUDY    58  51  78 N15G22    30.01R
$$

WIZ056-057-062-063-064-067-068-281800-
SOUTH CENTRAL WISCONSIN

CITY           SKY/WX    TMP DP  RH WIND       PRES   REMARKS
REEDSBURG      NOT AVBL
BARABOO/DELLS  CLOUDY    56  49  80 N5        30.00R
LONE ROCK      CLOUDY    58  49  72 N10       30.03R
MINERAL POINT  CLOUDY    57  52  82 N12G18    30.00R
MADISON        PTSUNNY   59  50  72 N13       29.98R
MIDDLETON      CLOUDY    58  51  75 N13       29.99S
WATERTOWN      LGT RAIN  55  53  92 N10G16    29.96R
MONROE         CLOUDY    54  50  87 N12       29.97R
JANESVILLE     CLOUDY    57  50  77 N8G14     29.95R
$$

WIZ051-052-058>065-066-070>072-281800-
SOUTHEAST WISCONSIN

CITY           SKY/WX    TMP DP  RH WIND       PRES   REMARKS
MILWAUKEE      CLOUDY    58  50  75 N13       29.96R
WAUKESHA       RAIN      52  50  93 N9        29.97R
MILWAUKEE/TIMM LGT RAIN  54  48  82 N7        29.97R
RACINE         CLOUDY    55  49  80 N16       29.96R
BURLINGTON     CLOUDY    57  46  67 N10       29.94R
KENOSHA        CLOUDY    58  48  69 N13       29.94R
FOND DU LAC    LGT RAIN  57  51  80 NE14      29.99R
SHEBOYGAN      PTSUNNY   57  50  77 NE13      29.97R
WEST BEND      CLOUDY    55  50  82 NE9G16    29.96R
JUNEAU         CLOUDY    56  51  83 N14       29.98R
$$

LSZ147-162-281800-
LAKE SUPERIOR

STATION/POSITION TIME  TEMP    WIND        PRES    WAVE
                       AIR SEA DIR/SP/G            HT/PER
                 (UTC) (F)     (DEG/KT/KT) (MB)    (FT/S)
W MID LAKE BUOY  1650   55 50   30/ 14/ 16 1021.6R   5/ 7
DEVILS ISLAND    1700   53      30/ 14/ 16 1022.9R
SAXON HARBOR     1600   56      10/ 15/ 20 1021.0R
$$

LMZ867-665-643>646-281800-
LAKE MICHIGAN

STATION/POSITION TIME  TEMP    WIND        PRES    WAVE
                       AIR SEA DIR/SP/G            HT/PER
                 (UTC) (F)     (DEG/KT/KT) (MB)    (FT/S)
CHAMBERS ISLAND  1600   60      20/ 17/ 21 1015.6R
N MID LAKE BUOY  1650   59 66   70/ 14/ 17 1016.6R   3/ 4
NORTHPORT PIER   1600   60      70/ 14/ 19 1016.3R
SISTER BAY       1608          130/  5/  8   N/A
KEWAUNEE LAKESHO 1600   58      50/  7/ 12 1014.5R
SHEBOYGAN LAKESH 1700   56      50/ 13/ 13 1014.8R
PORT WASHINGTON  1600   56      30/  4/  9 1014.6
ATWATER BUOY     1700   53 54  340/ 10/ 12 1014.2R
MILWAUKEE LAKESH 1710   55     360/  9/ 12   N/A
S MID LAKE BUOY  1650   60 69   40/ 14/ 16 1012.5R   1/ 3
KENOSHA   LAKESH 1700   54     360/ 16/ 17 1013.5R
$$

TC  - TEMPERATURE IN CELSIUS
VSB - VISIBILITY IN STATUTE MILES
WCI - WIND CHILL INDEX
HX  - HEAT INDEX




USA.gov is the U.S. government's official web portal to all federal, state and local government web resources and services.